When you browse on this site, cookies collect data to enhance your experience and personalize the content and advertising you see.
Visit our Privacy Policy to learn more. By continuing to use the site, you agree to this use of cookies and data.
  • In Spain
  • List of Countries
  • For 7 days
  • Water Temperature
  • Weather Map
  • Weather Widgets
  • user-avatar
    Login

    Hourly Weather Andora

    Today, 17 October, Thursday

    Time Temperature Precipitation Wind Pressure Humidity
    00:00 +6°C° 0 mm 1 mps 623 mmHg 77%
    01:00 +6°C° 0 mm 1 mps 622 mmHg 76%
    02:00 +6°C° 0 mm 1 mps 622 mmHg 75%
    03:00 +6°C° 0 mm 1 mps 622 mmHg 74%
    04:00 +6°C° 0 mm 1 mps 622 mmHg 75%
    05:00 +6°C° 0 mm 1 mps 622 mmHg 76%
    06:00 +6°C° 0 mm 1 mps 622 mmHg 78%
    07:00 +7°C° 0 mm 2 mps 623 mmHg 69%
    08:00 +9°C° 0 mm 2 mps 624 mmHg 59%
    09:00 +12°C° 0 mm 2 mps 625 mmHg 50%
    10:00 +13°C° 0 mm 2 mps 625 mmHg 51%
    11:00 +13°C° 0 mm 2 mps 625 mmHg 52%
    12:00 +13°C° 0 mm 2 mps 625 mmHg 53%
    13:00 +13°C° 0 mm 2 mps 625 mmHg 55%
    14:00 +13°C° 0 mm 2 mps 625 mmHg 58%
    15:00 +13°C° 0 mm 1 mps 624 mmHg 60%
    16:00 +11°C° 0 mm 1 mps 624 mmHg 69%
    17:00 +9°C° 0 mm 1 mps 623 mmHg 77%
    18:00 +6°C° 0 mm 0 mps 623 mmHg 85%
    19:00 +7°C° 0 mm 1 mps 623 mmHg 86%
    20:00 +7°C° 0 mm 1 mps 623 mmHg 87%
    21:00 +6°C° 0 mm 1 mps 623 mmHg 87%
    22:00 +6°C° 0 mm 1 mps 623 mmHg 88%
    23:00 +6°C° 0 mm 1 mps 622 mmHg 88%

    Tomorrow, 18 October, Friday

    Time Temperature Precipitation Wind Pressure Humidity
    00:00 +5°C° 0 mm 1 mps 622 mmHg 88%
    01:00 +6°C° 0 mm 1 mps 622 mmHg 88%
    02:00 +5°C° 0 mm 2 mps 622 mmHg 88%
    03:00 +6°C° 0 mm 2 mps 622 mmHg 89%
    04:00 +7°C° 0 mm 1 mps 622 mmHg 89%
    05:00 +7°C° 0 mm 1 mps 622 mmHg 90%
    06:00 +7°C° 0 mm 1 mps 622 mmHg 91%
    07:00 +8°C° 0 mm 1 mps 623 mmHg 84%
    08:00 +10°C° 0 mm 1 mps 624 mmHg 78%
    09:00 +12°C° 0 mm 1 mps 625 mmHg 72%
    10:00 +13°C° 0 mm 1 mps 625 mmHg 68%
    11:00 +13°C° 0 mm 1 mps 625 mmHg 64%
    12:00 +14°C° 0 mm 2 mps 625 mmHg 60%
    13:00 +14°C° 0.1 mm 2 mps 625 mmHg 63%
    14:00 +13°C° 0.1 mm 2 mps 624 mmHg 66%
    15:00 +13°C° 0.1 mm 2 mps 624 mmHg 69%
    16:00 +10°C° 0.1 mm 2 mps 623 mmHg 77%
    17:00 +9°C° 0.1 mm 2 mps 622 mmHg 84%
    18:00 +8°C° 0.1 mm 1 mps 621 mmHg 92%
    19:00 +7°C° 0 mm 2 mps 621 mmHg 92%
    20:00 +7°C° 0 mm 2 mps 621 mmHg 92%
    21:00 +7°C° 0 mm 2 mps 621 mmHg 92%
    22:00 +7°C° 0.1 mm 2 mps 621 mmHg 92%
    23:00 +7°C° 0.1 mm 2 mps 620 mmHg 92%

    Day after tomorrow, 19 October, Saturday

    Time Temperature Precipitation Wind Pressure Humidity
    00:00 +8°C° 0.1 mm 2 mps 620 mmHg 92%
    01:00 +7°C° 0.1 mm 2 mps 620 mmHg 92%
    02:00 +7°C° 0.1 mm 2 mps 619 mmHg 93%
    03:00 +7°C° 0.1 mm 2 mps 619 mmHg 93%
    04:00 +6°C° 0 mm 2 mps 619 mmHg 93%
    05:00 +6°C° 0 mm 2 mps 619 mmHg 93%
    06:00 +5°C° 0 mm 2 mps 618 mmHg 93%
    07:00 +7°C° 0 mm 2 mps 619 mmHg 88%
    08:00 +8°C° 0 mm 3 mps 620 mmHg 82%
    09:00 +9°C° 0 mm 3 mps 620 mmHg 77%
    10:00 +10°C° 0 mm 3 mps 620 mmHg 73%
    11:00 +10°C° 0 mm 3 mps 620 mmHg 70%
    12:00 +11°C° 0 mm 3 mps 620 mmHg 66%
    13:00 +11°C° 0 mm 3 mps 620 mmHg 66%
    14:00 +11°C° 0 mm 3 mps 620 mmHg 65%
    15:00 +10°C° 0 mm 2 mps 619 mmHg 65%
    16:00 +9°C° 0.1 mm 2 mps 619 mmHg 71%
    17:00 +8°C° 0.1 mm 2 mps 619 mmHg 77%
    18:00 +7°C° 0.1 mm 2 mps 618 mmHg 83%
    19:00 +7°C° 0.1 mm 2 mps 618 mmHg 86%
    20:00 +8°C° 0.1 mm 2 mps 618 mmHg 89%
    21:00 +8°C° 0.1 mm 3 mps 618 mmHg 91%
    22:00 +8°C° 0.3 mm 3 mps 618 mmHg 92%
    23:00 +8°C° 0.3 mm 3 mps 617 mmHg 93%

    20 October, Sunday

    Time Temperature Precipitation Wind Pressure Humidity
    00:00 +7°C° 0.3 mm 4 mps 617 mmHg 94%
    01:00 +7°C° 0.1 mm 3 mps 617 mmHg 94%
    02:00 +7°C° 0.1 mm 3 mps 617 mmHg 94%
    03:00 +6°C° 0.1 mm 2 mps 617 mmHg 94%
    04:00 +6°C° 0 mm 2 mps 616 mmHg 94%
    05:00 +6°C° 0 mm 2 mps 616 mmHg 94%
    06:00 +5°C° 0 mm 2 mps 616 mmHg 93%
    07:00 +6°C° 0.9 mm 2 mps 616 mmHg 93%
    08:00 +6°C° 0.9 mm 2 mps 617 mmHg 93%
    09:00 +6°C° 0.9 mm 2 mps 617 mmHg 93%
    10:00 +6°C° 1.9 mm 2 mps 617 mmHg 93%
    11:00 +6°C° 1.9 mm 2 mps 617 mmHg 92%
    12:00 +7°C° 1.9 mm 3 mps 617 mmHg 91%
    13:00 +6°C° 1.5 mm 2 mps 617 mmHg 91%
    14:00 +6°C° 1.5 mm 2 mps 617 mmHg 91%
    15:00 +5°C° 1.5 mm 2 mps 617 mmHg 91%
    16:00 +6°C° 0.1 mm 1 mps 617 mmHg 92%
    17:00 +5°C° 0.1 mm 1 mps 617 mmHg 94%
    18:00 +5°C° 0.1 mm 1 mps 618 mmHg 95%
    19:00 +4°C° 0 mm 1 mps 618 mmHg 95%
    20:00 +4°C° 0 mm 1 mps 619 mmHg 95%
    21:00 +3°C° 0 mm 1 mps 619 mmHg 95%
    22:00 +3°C° 0 mm 1 mps 619 mmHg 95%
    23:00 +3°C° 0 mm 1 mps 619 mmHg 94%

    21 October, Monday

    Time Temperature Precipitation Wind Pressure Humidity
    00:00 +2°C° 0 mm 1 mps 620 mmHg 94%
    01:00 +2°C° 0 mm 1 mps 620 mmHg 93%
    02:00 +2°C° 0 mm 1 mps 620 mmHg 93%
    03:00 +2°C° 0 mm 1 mps 620 mmHg 92%
    04:00 +2°C° 0 mm 1 mps 620 mmHg 91%
    05:00 +1°C° 0 mm 0 mps 621 mmHg 90%
    06:00 +1°C° 0 mm 0 mps 621 mmHg 90%
    07:00 +3°C° 0 mm 1 mps 622 mmHg 85%
    08:00 +5°C° 0 mm 1 mps 623 mmHg 80%
    09:00 +7°C° 0 mm 1 mps 624 mmHg 75%
    10:00 +8°C° 0 mm 1 mps 624 mmHg 69%
    11:00 +7°C° 0 mm 2 mps 624 mmHg 63%
    12:00 +8°C° 0 mm 2 mps 625 mmHg 56%
    13:00 +8°C° 0 mm 2 mps 624 mmHg 58%
    14:00 +7°C° 0 mm 2 mps 624 mmHg 60%
    15:00 +7°C° 0 mm 2 mps 623 mmHg 62%
    16:00 +7°C° 0 mm 1 mps 623 mmHg 72%
    17:00 +5°C° 0 mm 1 mps 623 mmHg 81%
    18:00 +3°C° 0 mm 0 mps 622 mmHg 91%
    19:00 +3°C° 0.1 mm 0 mps 622 mmHg 91%
    20:00 +4°C° 0.1 mm 1 mps 622 mmHg 92%
    21:00 +4°C° 0.1 mm 1 mps 623 mmHg 92%
    22:00 +4°C° 0 mm 1 mps 623 mmHg 92%
    23:00 +3°C° 0 mm 1 mps 622 mmHg 92%

    22 October, Tuesday

    Time Temperature Precipitation Wind Pressure Humidity
    00:00 +3°C° 0 mm 1 mps 622 mmHg 92%
    01:00 +3°C° 0.3 mm 1 mps 622 mmHg 91%
    02:00 +3°C° 0.3 mm 1 mps 622 mmHg 91%
    03:00 +3°C° 0.3 mm 1 mps 621 mmHg 91%
    04:00 +3°C° 2.4 mm 1 mps 621 mmHg 93%
    05:00 +2°C° 2.4 mm 2 mps 621 mmHg 95%
    06:00 +2°C° 2.4 mm 2 mps 620 mmHg 97%
    07:00 +2°C° 3 mm 2 mps 620 mmHg 97%
    08:00 +3°C° 3 mm 2 mps 620 mmHg 97%
    09:00 +3°C° 3 mm 2 mps 620 mmHg 96%
    10:00 +4°C° 1.7 mm 2 mps 620 mmHg 96%
    11:00 +5°C° 1.7 mm 2 mps 620 mmHg 97%
    12:00 +7°C° 1.7 mm 1 mps 620 mmHg 97%
    13:00 +7°C° 4.7 mm 1 mps 620 mmHg 98%
    14:00 +8°C° 4.7 mm 1 mps 619 mmHg 98%
    15:00 +8°C° 4.7 mm 1 mps 619 mmHg 99%
    16:00 +8°C° 5.4 mm 1 mps 619 mmHg 98%
    17:00 +7°C° 5.4 mm 2 mps 619 mmHg 98%
    18:00 +7°C° 5.4 mm 2 mps 619 mmHg 97%
    19:00 +8°C° 0.7 mm 2 mps 619 mmHg 97%
    20:00 +8°C° 0.7 mm 2 mps 619 mmHg 97%
    21:00 +8°C° 0.7 mm 2 mps 619 mmHg 97%
    22:00 +9°C° 0.9 mm 2 mps 618 mmHg 97%
    23:00 +9°C° 0.9 mm 2 mps 618 mmHg 97%
    Show more